Location: Rounton
(54.4000°N, 1.3500°W)
Time: 06:19:18
(UTC+00:00)

A-11 Canister half - Pass Details

Date: 09 December 2021
Orbit: 1516 x 1684 km, 47.2° (Epoch: 21 January)

Event Time Altitude Azimuth Distance (km) Brightness Sun altitude
Rises 11:30:41 0° 282° (WNW) 4,854 11.4 12.5°
Reaches altitude 10° 11:34:08 10° 274° (W) 3,887 11.1 12.6°
Maximum altitude 11:42:43 35° 215° (SW) 2,483 11.0 12.7°
Drops below altitude 10° 11:51:26 10° 155° (SSE) 3,941 12.6 12.7°
Sets 11:54:58 0° 147° (SSE) 4,928 12.7 12.7°
